Location: Home
(42.5358°N, 72.7383°W)
Time: 03:51:13
(UTC-04:00)

Vanguard 1 - Pass Details

Date: 05 June 2022
Orbit: 649 x 3832 km, 34.2° (Epoch: 24 June)

Event Time Altitude Azimuth Distance (km) Brightness Sun altitude
Rises 01:52:54 0° 260° (W) 4,681 13.3 -23.3°
Reaches altitude 10° 01:55:27 10° 257° (WSW) 4,006 12.9 -23.2°
Maximum altitude 02:06:42 62° 179° (S) 2,791 12.0 -22.5°
Drops below altitude 10° 02:26:38 10° 106° (ESE) 6,679 14.4 -21.2°
Sets 02:32:25 0° 104° (ESE) 7,896 14.8 -20.7°
